Regional Weather Roundup
Issued by NWS

Home | Current Version | Previous Version | Text Only | Print | Product List | Glossary On
Versions: 1 2 3 4 5 6 7 8 9 10 11 12 13 14 15 16 17 18 19 20 21 22 23 24 25 26 27 28 29 30 31 32 33 34 35 36 37 38 39 40 41 42 43 44 45 46 47 48 49 50
000
ASUS42 KKEY 180210
RWRKEY

FLORIDA REGIONAL WEATHER ROUNDUP FOR THE FLORIDA KEYS
NATIONAL WEATHER SERVICE KEY WEST FLORIDA
900 PM EST WED DEC 17 2014

...SOUTH FLORIDA AND THE KEYS...

CITY           SKY/WX    TMP DP  RH WIND       PRES   REMARKS
FORT MYERS     CLEAR     62  59  90 CALM      30.15R
SW REGIONAL AP CLEAR     62  53  72 CALM      30.15R
NAPLES         CLEAR     63  59  87 CALM      30.14S
MIAMI          CLEAR     69  55  60 SW6       30.15R
WEST KENDALL   CLEAR     63  56  78 SW5       30.16R
HOMESTEAD      CLEAR     63  57  81 W2        30.16R
MARATHON       CLEAR     65  62  90 NW5       30.15R
BOCA CHICA NAS CLEAR     65  61  87 NE3       30.15R
KEY WEST INTL  CLEAR     66  62  87 NE5       30.16R

...INTERNATIONAL WEATHER...

CITY           SKY/WX    TMP DP  RH WIND       PRES   REMARKS
NASSAU BAHAMAS   N/A     66  55  68 CALM      30.17R
CANCUN MEXICO  PTCLDY    70  59  68 NE2       30.11S
COZUMEL MEXICO PTCLDY    61  57  88 CALM      30.11R

ADJACENT COASTAL WATERS...

STATION/POSITION TIME  SKY/WX   TEMP    WIND        PRES    WAVE
                                AIR SEA DIR/SP/G            HT/PER
                 (UTC)          (F)     (DEG/KT/KT) (MB)    (FT/S)
PULASKI SHOAL LI 0100            71     100/  3/  4 1020.7R
SAND KEY         0136            71      40/  6/  7 1021.0R
SOMBRERO KEY     0200            71     350/  8/  9 1021.7R
LONG KEY         0100            68 68  360/  4/  4 1021.3
MOLASSES REEF    0200            71 78  320/  5/  6 1020.8R
FOWEY ROCKS      NOT AVBL
Buoy 42080       NOT AVBL

$$



USA.gov is the U.S. government's official web portal to all federal, state and local government web resources and services.